Terminal Aerodrome Forecast
Issued by NWS Charleston, WV

Current Version | Previous Version | Graphics & Text | Print | Product List | Glossary On
Versions: 1 2 3 4 5 6 7 8 9 10 11 12 13 14 15 16 17 18 19 20 21 22
573
FTUS41 KRLX 290945 AAA
TAFPKB
TAF AMD
KPKB 290945Z 2910/3006 VRB03KT 1SM BR BKN002
     FM291200 VRB03KT 4SM BR OVC010
     FM291500 28005KT 6SM HZ BKN025
     FM291800 31006KT P6SM BKN045
     FM292200 33007KT P6SM SCT050=

USA.gov is the U.S. government's official web portal to all federal, state and local government web resources and services.